Time,TemperatureF,DewpointF,PressureIn,WindDirection,WindDirectionDegrees,WindSpeedMPH,WindSpeedGustMPH,Humidity,HourlyPrecipIn,Conditions,Clouds,dailyrainin,SoftwareType,DateUTC
2013-10-26 00:10:00,42.2,32.0,30.14,NW,316,1.0,3.0,67,0.00,,,0.00,weatherlink.com 1.10,2013-10-26 04:10:00,
2013-10-26 00:25:00,42.0,32.0,30.13,West,266,0.0,3.0,67,0.00,,,0.00,weatherlink.com 1.10,2013-10-26 04:25:00,
2013-10-26 00:40:00,42.2,32.0,30.14,WSW,250,0.0,3.0,67,0.00,,,0.00,weatherlink.com 1.10,2013-10-26 04:40:00,
2013-10-26 00:55:00,42.0,32.0,30.13,West,260,0.0,4.0,67,0.00,,,0.00,weatherlink.com 1.10,2013-10-26 04:55:00,
2013-10-26 01:10:00,40.8,32.0,30.13,WSW,257,0.0,3.0,70,0.00,,,0.00,weatherlink.com 1.10,2013-10-26 05:10:00,
2013-10-26 01:25:00,40.9,32.0,30.13,WNW,301,0.0,1.0,71,0.00,,,0.00,weatherlink.com 1.10,2013-10-26 05:25:00,
2013-10-26 01:40:00,41.0,32.0,30.13,West,276,0.0,3.0,71,0.00,,,0.00,weatherlink.com 1.10,2013-10-26 05:40:00,
2013-10-26 01:55:00,40.9,33.0,30.13,WSW,250,2.0,3.0,72,0.00,,,0.00,weatherlink.com 1.10,2013-10-26 05:55:00,
2013-10-26 02:10:00,40.6,33.0,30.13,WSW,249,0.0,2.0,73,0.00,,,0.00,weatherlink.com 1.10,2013-10-26 06:10:00,
2013-10-26 02:25:00,40.2,33.0,30.13,West,270,0.0,3.0,74,0.00,,,0.00,weatherlink.com 1.10,2013-10-26 06:25:00,
2013-10-26 02:40:00,39.7,32.0,30.13,WSW,247,0.0,1.0,75,0.00,,,0.00,weatherlink.com 1.10,2013-10-26 06:40:00,
2013-10-26 02:55:00,39.5,33.0,30.12,WNW,295,1.0,2.0,77,0.00,,,0.00,weatherlink.com 1.10,2013-10-26 06:55:00,
2013-10-26 03:10:00,38.5,32.0,30.13,WNW,294,0.0,3.0,76,0.00,,,0.00,weatherlink.com 1.10,2013-10-26 07:10:00,
2013-10-26 03:25:00,-999.0,-99.9,30.12,North,-999,-999.0,-999.0,-999,0.00,,,0.00,weatherlink.com 1.10,2013-10-26 07:25:00,
2013-10-26 03:40:00,-999.0,-99.9,30.12,North,-999,-999.0,-999.0,-999,0.00,,,0.00,weatherlink.com 1.10,2013-10-26 07:40:00,
2013-10-26 03:55:00,-999.0,-99.9,30.12,North,-999,-999.0,-999.0,-999,0.00,,,0.00,weatherlink.com 1.10,2013-10-26 07:55:00,
2013-10-26 04:10:00,-999.0,-99.9,30.12,North,-999,-999.0,-999.0,-999,0.00,,,0.00,weatherlink.com 1.10,2013-10-26 08:10:00,
2013-10-26 04:25:00,-999.0,-99.9,30.12,North,-999,-999.0,-999.0,-999,0.00,,,0.00,weatherlink.com 1.10,2013-10-26 08:25:00,
2013-10-26 04:40:00,-999.0,-99.9,30.13,North,-999,-999.0,-999.0,-999,0.00,,,0.00,weatherlink.com 1.10,2013-10-26 08:40:00,
2013-10-26 04:55:00,-999.0,-99.9,30.13,North,-999,-999.0,-999.0,-999,0.00,,,0.00,weatherlink.com 1.10,2013-10-26 08:55:00,
2013-10-26 05:11:00,-999.0,-99.9,30.12,North,-999,-999.0,-999.0,-999,0.00,,,0.00,weatherlink.com 1.10,2013-10-26 09:11:00,
2013-10-26 05:26:00,-999.0,-99.9,30.12,North,-999,-999.0,-999.0,-999,0.00,,,0.00,weatherlink.com 1.10,2013-10-26 09:26:00,
2013-10-26 05:41:00,-999.0,-99.9,30.13,North,-999,-999.0,-999.0,-999,0.00,,,0.00,weatherlink.com 1.10,2013-10-26 09:41:00,
2013-10-26 05:56:00,-999.0,-99.9,30.12,North,-999,-999.0,-999.0,-999,0.00,,,0.00,weatherlink.com 1.10,2013-10-26 09:56:00,
2013-10-26 06:11:00,-999.0,-99.9,30.13,North,-999,-999.0,-999.0,-999,0.00,,,0.00,weatherlink.com 1.10,2013-10-26 10:11:00,
2013-10-26 06:26:00,-999.0,-99.9,30.13,North,-999,-999.0,-999.0,-999,0.00,,,0.00,weatherlink.com 1.10,2013-10-26 10:26:00,
2013-10-26 06:41:00,-999.0,-99.9,30.12,North,-999,-999.0,-999.0,-999,0.00,,,0.00,weatherlink.com 1.10,2013-10-26 10:41:00,
2013-10-26 06:56:00,-999.0,-99.9,30.13,North,-999,-999.0,-999.0,-999,0.00,,,0.00,weatherlink.com 1.10,2013-10-26 10:56:00,
2013-10-26 07:11:00,-999.0,-99.9,30.13,North,-999,-999.0,-999.0,-999,0.00,,,0.00,weatherlink.com 1.10,2013-10-26 11:11:00,
2013-10-26 07:26:00,43.8,36.0,30.13,WSW,240,0.0,0.0,73,0.00,,,0.00,weatherlink.com 1.10,2013-10-26 11:26:00,
2013-10-26 07:41:00,46.6,38.0,30.13,SW,228,0.0,1.0,71,0.00,,,0.00,weatherlink.com 1.10,2013-10-26 11:41:00,
2013-10-26 07:56:00,48.7,37.0,30.13,WNW,293,2.0,3.0,64,0.00,,,0.00,weatherlink.com 1.10,2013-10-26 11:56:00,
2013-10-26 08:11:00,46.4,37.0,30.14,WNW,291,0.0,3.0,70,0.00,,,0.00,weatherlink.com 1.10,2013-10-26 12:11:00,
2013-10-26 08:26:00,45.6,38.0,30.14,WNW,301,0.0,4.0,74,0.00,,,0.00,weatherlink.com 1.10,2013-10-26 12:26:00,
2013-10-26 08:41:00,46.6,39.0,30.14,NW,308,0.0,5.0,76,0.00,,,0.00,weatherlink.com 1.10,2013-10-26 12:41:00,
2013-10-26 08:56:00,48.0,40.0,30.14,West,276,3.0,6.0,74,0.00,,,0.00,weatherlink.com 1.10,2013-10-26 12:56:00,
2013-10-26 09:11:00,49.8,41.0,30.14,NW,316,2.0,8.0,72,0.00,,,0.00,weatherlink.com 1.10,2013-10-26 13:11:00,
2013-10-26 09:26:00,51.4,41.0,30.13,WNW,298,3.0,9.0,68,0.00,,,0.00,weatherlink.com 1.10,2013-10-26 13:26:00,
2013-10-26 09:41:00,52.3,42.0,30.13,NW,306,6.0,12.0,67,0.00,,,0.00,weatherlink.com 1.10,2013-10-26 13:41:00,
2013-10-26 09:56:00,52.5,41.0,30.12,WNW,301,7.0,10.0,66,0.00,,,0.00,weatherlink.com 1.10,2013-10-26 13:56:00,
2013-10-26 10:11:00,53.9,42.0,30.12,WNW,285,5.0,11.0,64,0.00,,,0.00,weatherlink.com 1.10,2013-10-26 14:11:00,
2013-10-26 10:26:00,53.6,40.0,30.12,NW,316,2.0,13.0,60,0.00,,,0.00,weatherlink.com 1.10,2013-10-26 14:26:00,
2013-10-26 10:42:00,53.8,40.0,30.12,WNW,298,5.0,15.0,60,0.00,,,0.00,weatherlink.com 1.10,2013-10-26 14:42:00,
2013-10-26 10:57:00,54.7,40.0,30.11,NNW,338,5.0,14.0,58,0.00,,,0.00,weatherlink.com 1.10,2013-10-26 14:57:00,
2013-10-26 11:12:00,54.9,40.0,30.10,NW,316,8.0,11.0,58,0.00,,,0.00,weatherlink.com 1.10,2013-10-26 15:12:00,
2013-10-26 11:27:00,54.6,42.0,30.09,SW,225,2.0,13.0,62,0.00,,,0.00,weatherlink.com 1.10,2013-10-26 15:27:00,
2013-10-26 11:42:00,54.7,42.0,30.09,South,188,6.0,11.0,62,0.00,,,0.00,weatherlink.com 1.10,2013-10-26 15:42:00,
2013-10-26 11:57:00,55.1,43.0,30.08,WNW,284,4.0,14.0,64,0.00,,,0.00,weatherlink.com 1.10,2013-10-26 15:57:00,
2013-10-26 12:12:00,55.9,43.0,30.07,NW,324,4.0,10.0,62,0.00,,,0.00,weatherlink.com 1.10,2013-10-26 16:12:00,
2013-10-26 12:27:00,56.0,43.0,30.07,East,96,2.0,15.0,62,0.00,,,0.00,weatherlink.com 1.10,2013-10-26 16:27:00,
2013-10-26 12:42:00,55.9,43.0,30.06,WSW,253,11.0,18.0,63,0.00,,,0.00,weatherlink.com 1.10,2013-10-26 16:42:00,
2013-10-26 12:57:00,56.0,41.0,30.05,NNW,346,4.0,17.0,57,0.00,,,0.00,weatherlink.com 1.10,2013-10-26 16:57:00,
2013-10-26 13:12:00,56.4,41.0,30.05,SSW,197,3.0,18.0,56,0.00,,,0.00,weatherlink.com 1.10,2013-10-26 17:12:00,
2013-10-26 13:27:00,55.3,41.0,30.04,ESE,120,4.0,18.0,60,0.00,,,0.00,weatherlink.com 1.10,2013-10-26 17:27:00,
2013-10-26 13:42:00,55.7,41.0,30.03,SW,224,8.0,22.0,59,0.00,,,0.00,weatherlink.com 1.10,2013-10-26 17:42:00,
2013-10-26 13:57:00,56.5,42.0,30.03,NNW,335,7.0,17.0,58,0.00,,,0.00,weatherlink.com 1.10,2013-10-26 17:57:00,
2013-10-26 14:12:00,56.5,41.0,30.02,NW,316,4.0,21.0,56,0.00,,,0.00,weatherlink.com 1.10,2013-10-26 18:12:00,
2013-10-26 14:27:00,56.4,41.0,30.02,WSW,255,4.0,19.0,56,0.00,,,0.00,weatherlink.com 1.10,2013-10-26 18:27:00,
2013-10-26 14:42:00,56.5,41.0,30.01,West,277,3.0,18.0,56,0.00,,,0.00,weatherlink.com 1.10,2013-10-26 18:42:00,
2013-10-26 14:57:00,56.8,41.0,30.01,SW,226,6.0,22.0,55,0.00,,,0.00,weatherlink.com 1.10,2013-10-26 18:57:00,
2013-10-26 15:12:00,56.3,40.0,30.00,West,272,5.0,19.0,55,0.00,,,0.00,weatherlink.com 1.10,2013-10-26 19:12:00,
2013-10-26 15:27:00,55.7,40.0,30.01,ENE,65,3.0,17.0,57,0.00,,,0.00,weatherlink.com 1.10,2013-10-26 19:27:00,
2013-10-26 15:42:00,55.4,40.0,30.00,SSW,207,3.0,22.0,56,0.00,,,0.00,weatherlink.com 1.10,2013-10-26 19:42:00,
2013-10-26 15:57:00,54.9,39.0,30.00,NNW,335,5.0,19.0,56,0.00,,,0.00,weatherlink.com 1.10,2013-10-26 19:57:00,
2013-10-26 16:12:00,55.2,40.0,30.00,SW,226,11.0,20.0,56,0.00,,,0.00,weatherlink.com 1.10,2013-10-26 20:12:00,
2013-10-26 16:27:00,54.3,41.0,29.99,South,179,4.0,20.0,61,0.00,,,0.00,weatherlink.com 1.10,2013-10-26 20:27:00,
2013-10-26 16:42:00,54.5,41.0,29.98,NW,322,6.0,20.0,60,0.00,,,0.00,weatherlink.com 1.10,2013-10-26 20:42:00,
2013-10-26 16:57:00,54.0,41.0,29.97,South,174,1.0,21.0,61,0.00,,,0.00,weatherlink.com 1.10,2013-10-26 20:57:00,
2013-10-26 17:12:00,54.1,41.0,29.96,South,188,9.0,21.0,62,0.00,,,0.00,weatherlink.com 1.10,2013-10-26 21:12:00,
2013-10-26 17:27:00,54.1,42.0,29.96,WNW,282,3.0,18.0,63,0.00,,,0.00,weatherlink.com 1.10,2013-10-26 21:27:00,
2013-10-26 17:42:00,54.1,42.0,29.95,ESE,111,4.0,19.0,63,0.00,,,0.00,weatherlink.com 1.10,2013-10-26 21:42:00,
2013-10-26 17:57:00,54.3,41.0,29.95,WSW,246,8.0,24.0,62,0.00,,,0.00,weatherlink.com 1.10,2013-10-26 21:57:00,
2013-10-26 18:12:00,54.4,40.0,29.94,East,94,5.0,16.0,59,0.00,,,0.00,weatherlink.com 1.10,2013-10-26 22:12:00,
2013-10-26 18:27:00,54.6,41.0,29.94,NW,306,8.0,21.0,61,0.00,,,0.00,weatherlink.com 1.10,2013-10-26 22:27:00,
2013-10-26 18:42:00,54.6,42.0,29.94,South,181,3.0,14.0,62,0.00,,,0.00,weatherlink.com 1.10,2013-10-26 22:42:00,
2013-10-26 18:57:00,54.8,42.0,29.94,West,261,5.0,16.0,62,0.00,,,0.00,weatherlink.com 1.10,2013-10-26 22:57:00,
2013-10-26 19:12:00,55.0,42.0,29.94,West,264,3.0,17.0,61,0.00,,,0.00,weatherlink.com 1.10,2013-10-26 23:12:00,
2013-10-26 19:27:00,55.2,41.0,29.94,South,190,8.0,21.0,60,0.00,,,0.00,weatherlink.com 1.10,2013-10-26 23:27:00,
2013-10-26 19:42:00,55.4,43.0,29.93,ENE,77,3.0,18.0,63,0.00,,,0.00,weatherlink.com 1.10,2013-10-26 23:42:00,
2013-10-26 19:57:00,55.7,42.0,29.94,NNE,18,5.0,21.0,61,0.00,,,0.00,weatherlink.com 1.10,2013-10-26 23:57:00,
2013-10-26 20:12:00,55.5,42.0,29.93,West,270,11.0,19.0,62,0.00,,,0.00,weatherlink.com 1.10,2013-10-27 00:12:00,
2013-10-26 20:28:00,55.7,42.0,29.92,WNW,295,6.0,24.0,61,0.00,,,0.00,weatherlink.com 1.10,2013-10-27 00:28:00,
2013-10-26 20:43:00,55.6,43.0,29.92,WSW,255,9.0,17.0,64,0.00,,,0.00,weatherlink.com 1.10,2013-10-27 00:43:00,
2013-10-26 20:58:00,55.8,44.0,29.91,ENE,72,5.0,20.0,64,0.00,,,0.00,weatherlink.com 1.10,2013-10-27 00:58:00,
2013-10-26 21:13:00,55.8,45.0,29.91,SSW,213,13.0,13.0,67,0.00,,,0.00,weatherlink.com 1.10,2013-10-27 01:13:00,
2013-10-26 21:28:00,56.3,45.0,29.92,SW,218,8.0,19.0,66,0.00,,,0.00,weatherlink.com 1.10,2013-10-27 01:28:00,
2013-10-26 21:43:00,56.7,45.0,29.91,SW,219,13.0,22.0,64,0.00,,,0.00,weatherlink.com 1.10,2013-10-27 01:43:00,
2013-10-26 21:58:00,56.9,45.0,29.91,NW,318,3.0,23.0,65,0.00,,,0.00,weatherlink.com 1.10,2013-10-27 01:58:00,
2013-10-26 22:13:00,57.1,46.0,29.90,SE,134,1.0,15.0,66,0.00,,,0.00,weatherlink.com 1.10,2013-10-27 02:13:00,
2013-10-26 22:28:00,57.1,47.0,29.90,WNW,283,7.0,15.0,68,0.00,,,0.00,weatherlink.com 1.10,2013-10-27 02:28:00,
2013-10-26 22:43:00,57.6,46.0,29.89,North,354,7.0,17.0,66,0.00,,,0.00,weatherlink.com 1.10,2013-10-27 02:43:00,
2013-10-26 22:58:00,57.9,47.0,29.88,SW,228,5.0,21.0,67,0.00,,,0.00,weatherlink.com 1.10,2013-10-27 02:58:00,
2013-10-26 23:13:00,58.0,47.0,29.87,SW,225,3.0,16.0,68,0.00,,,0.00,weatherlink.com 1.10,2013-10-27 03:13:00,
2013-10-26 23:28:00,57.8,46.0,29.87,West,277,8.0,19.0,66,0.00,,,0.00,weatherlink.com 1.10,2013-10-27 03:28:00,
2013-10-26 23:43:00,55.9,47.0,29.86,NNE,27,3.0,18.0,73,0.00,,,0.00,weatherlink.com 1.10,2013-10-27 03:43:00,
2013-10-26 23:58:00,55.3,47.0,29.85,SW,236,3.0,21.0,73,0.00,,,0.00,weatherlink.com 1.10,2013-10-27 03:58:00,